Temp
-5 -5 -5 -4 -4 -5 -5 -4 -4 -4 -5 -5 -5 -5 -5 -5 -5 -5 -5 -5 -5 -5 -5 -5 -6 -6 -6 -6 -6 -7 -8 -8 -8 -8 -8 -8 -9 -10 -11 -11 -12 -13 -14
-5 -5 -5 -5 -5 -6 -5 -6 -5 -5 -5 -4 -4 -4 -5 -4 -5 -5 -5 -5 -5 -5 -5 -5 -6 -7 -6 -6 -6 -6 -8 -8 -8 -8 -8 -8 -9 -10 -12 -13 -12 -12 -14
-6 -5 -5 -6 -6 -7 -6 -6 -6 -6 -6 -6 -6 -5 -5 -5 -5 -5 -5 -5 -5 -6 -6 -5 -6 -6 -6 -6 -6 -6 -7 -7 -8 -8 -8 -8 -9 -10 -10 -12 -12 -12 -13
-5 -5 -5 -5 -6 -6 -6 -6 -6 -6 -6 -6 -6 -6 -6 -6 -5 -5 -5 -5 -5 -5 -5 -5 -5 -6 -6 -6 -6 -6 -7 -8 -7 -8 -8 -8 -9 -10 -10 -11 -12 -11 -12
-5 -5 -5 -5 -5 -6 -6 -6 -7 -6 -5 -6 -7 -6 -6 -5 -5 -5 -4 -4 -5 -5 -5 -5 -5 -5 -6 -6 -6 -6 -6 -6 -7 -7 -8 -8 -8 -9 -10 -10 -12 -12 -11
-5 -5 -6 -6 -6 -6 -6 -6 -7 -6 -7 -4 -6 -6 -6 -7 -6 -6 -5 -5 -5 -5 -5 -5 -5 -5 -6 -6 -6 -6 -5 -5 -6 -7 -8 -8 -8 -9 -10 -10 -10 -12 -11
-5 -5 -5 -6 -6 -6 -6 -5 -6 -5 -5 -5 -4 -4 -4 -6 -6 -5 -6 -5 -5 -5 -5 -5 -5 -6 -6 -5 -6 -5 -6 -5 -5 -6 -7 -7 -7 -8 -9 -10 -9 -10 -10
-5 -5 -6 -6 -6 -6 -6 -6 -6 -6 -5 -5 -5 -5 -5 -6 -6 -5 -5 -5 -6 -5 -5 -5 -5 -6 -7 -6 -5 -5 -6 -5 -4 -5 -6 -6 -7 -7 -8 -8 -9 -9 -9
-5 -5 -6 -6 -6 -6 -6 -6 -6 -6 -6 -5 -5 -5 -5 -6 -6 -5 -5 -6 -6 -6 -6 -5 -5 -5 -6 -6 -6 -5 -5 -5 -5 -5 -6 -6 -6 -7 -8 -8 -8 -8 -8
-5 -6 -6 -6 -6 -6 -7 -7 -7 -7 -7 -6 -6 -5 -6 -6 -7 -6 -5 -6 -6 -6 -5 -5 -5 -5 -5 -6 -6 -6 -5 -5 -5 -5 -5 -7 -6 -7 -7 -7 -6 -7 -7
-6 -6 -7 -7 -7 -7 -7 -8 -7 -8 -7 -6 -6 -6 -6 -7 -7 -7 -8 -7 -7 -6 -6 -5 -4 -4 -4 -6 -6 -6 -5 -5 -5 -5 -6 -6 -6 -6 -6 -7 -6 -6 -6
-7 -7 -8 -8 -8 -8 -8 -8 -8 -8 -7 -7 -6 -7 -7 -7 -8 -8 -9 -8 -8 -7 -6 -6 -4 -4 -5 -6 -6 -6 -5 -5 -4 -5 -5 -6 -6 -6 -6 -6 -7 -5 -5
-8 -8 -8 -8 -9 -9 -9 -9 -9 -9 -8 -8 -8 -8 -8 -8 -9 -9 -9 -9 -8 -7 -6 -5 -5 -5 -6 -7 -6 -7 -5 -5 -5 -5 -5 -6 -6 -5 -6 -5 -5 -5 -5
-9 -9 -9 -10 -10 -10 -10 -10 -10 -10 -9 -9 -9 -10 -9 -9 -10 -9 -9 -9 -8 -8 -7 -6 -6 -7 -7 -8 -8 -7 -6 -5 -5 -6 -6 -5 -5 -5 -5 -5 -5 -5 -4
-10 -10 -11 -11 -11 -11 -11 -11 -11 -11 -11 -11 -11 -10 -10 -10 -11 -10 -10 -10 -9 -9 -8 -7 -7 -7 -8 -8 -8 -7 -7 -7 -6 -6 -6 -6 -5 -5 -5 -5 -5 -5 -4
-11 -11 -11 -11 -11 -11 -11 -11 -11 -11 -11 -10 -11 -11 -10 -10 -10 -11 -10 -10 -10 -10 -9 -8 -8 -7 -8 -9 -8 -9 -8 -7 -7 -6 -6 -6 -6 -6 -5 -4 -5 -5 -5
-11 -12 -12 -12 -11 -12 -12 -11 -11 -10 -10 -10 -10 -10 -10 -10 -10 -10 -10 -10 -10 -10 -9 -9 -9 -8 -8 -8 -9 -8 -10 -8 -7 -7 -7 -7 -7 -6 -6 -5 -5 -6 -6
-12 -12 -12 -12 -12 -12 -11 -11 -11 -10 -9 -10 -10 -10 -10 -10 -10 -10 -9 -10 -10 -9 -9 -9 -9 -9 -8 -8 -8 -8 -9 -8 -8 -8 -7 -7 -7 -7 -6 -6 -5 -6 -6
-12 -12 -12 -12 -13 -12 -12 -11 -11 -11 -11 -10 -10 -10 -10 -10 -9 -9 -9 -9 -10 -9 -9 -9 -8 -9 -9 -9 -9 -9 -8 -9 -8 -8 -7 -7 -7 -7 -7 -7 -7 -6 -6
-12 -12 -12 -13 -13 -13 -13 -12 -12 -11 -11 -10 -10 -10 -10 -10 -9 -9 -9 -9 -9 -9 -9 -9 -9 -8 -9 -9 -8 -9 -9 -9 -9 -8 -8 -7 -7 -7 -7 -7 -7 -6 -6
-13 -12 -12 -14 -14 -13 -13 -12 -11 -11 -11 -10 -10 -10 -10 -10 -10 -9 -9 -9 -9 -9 -9 -9 -9 -9 -9 -9 -9 -8 -9 -9 -9 -10 -9 -8 -7 -7 -7 -6 -7 -7 -7
-13 -13 -13 -14 -14 -13 -12 -12 -12 -12 -11 -11 -11 -11 -10 -10 -10 -10 -9 -9 -9 -9 -9 -9 -9 -9 -10 -10 -9 -9 -9 -9 -9 -10 -9 -9 -8 -7 -7 -7 -7 -8 -8
-15 -15 -14 -14 -13 -13 -13 -13 -12 -12 -12 -12 -11 -11 -11 -10 -10 -10 -10 -10 -10 -10 -9 -9 -9 -9 -9 -10 -10 -9 -9 -9 -9 -10 -10 -9 -9 -8 -8 -8 -8 -8 -8
-15 -14 -14 -13 -13 -13 -13 -13 -13 -12 -12 -12 -12 -11 -11 -11 -11 -11 -12 -12 -12 -12 -11 -11 -10 -10 -10 -10 -10 -10 -10 -10 -11 -10 -10 -10 -9 -9 -9 -9 -9 -9 -9
-14 -14 -14 -14 -14 -14 -13 -13 -13 -13 -13 -13 -13 -12 -13 -13 -13 -13 -13 -12 -12 -12 -12 -12 -12 -11 -10 -10 -10 -11 -11 -11 -11 -11 -11 -10 -10 -9 -9 -9 -9 -9 -8
-14 -14 -14 -14 -14 -14 -14 -13 -13 -13 -13 -13 -13 -13 -13 -13 -13 -13 -12 -12 -12 -12 -12 -12 -12 -12 -11 -11 -11 -11 -12 -11 -11 -11 -11 -11 -11 -10 -10 -9 -9 -10 -9
Height
5926 5924 5925 5925 5925 5925 5924 5925 5924 5922 5920 5919 5918 5917 5917 5915 5913 5910 5907 5904 5901 5898 5894 5890 5886 5881 5875 5866 5862 5855 5845 5838 5831 5822 5813 5803 5793 5785 5774 5773 5769 5764 5760
5923 5923 5921 5920 5921 5921 5921 5920 5920 5919 5918 5916 5915 5913 5911 5910 5908 5906 5904 5900 5896 5894 5891 5888 5884 5879 5874 5870 5864 5857 5847 5840 5833 5824 5815 5805 5796 5785 5776 5772 5769 5764 5758
5918 5921 5917 5917 5916 5915 5915 5915 5915 5914 5912 5911 5911 5909 5908 5907 5905 5903 5901 5897 5894 5889 5886 5886 5881 5876 5873 5867 5864 5858 5848 5839 5833 5826 5818 5808 5799 5791 5782 5774 5770 5765 5759
5914 5912 5913 5913 5912 5912 5912 5911 5911 5911 5909 5906 5905 5905 5904 5903 5902 5899 5898 5895 5893 5888 5881 5881 5879 5875 5871 5866 5861 5855 5851 5841 5836 5829 5821 5813 5803 5795 5786 5779 5774 5771 5765
5905 5905 5907 5907 5907 5907 5907 5906 5906 5905 5904 5903 5901 5899 5899 5897 5897 5897 5894 5892 5889 5882 5881 5880 5878 5874 5870 5866 5862 5856 5852 5845 5838 5833 5825 5818 5808 5802 5795 5788 5781 5780 5775
5898 5899 5899 5899 5900 5900 5901 5901 5900 5899 5898 5896 5897 5896 5894 5893 5892 5892 5890 5887 5886 5883 5879 5876 5873 5871 5868 5865 5861 5855 5852 5846 5840 5835 5830 5824 5815 5809 5802 5794 5791 5787 5786
5889 5890 5891 5891 5891 5892 5893 5893 5893 5892 5891 5890 5889 5887 5887 5888 5886 5886 5885 5881 5880 5880 5877 5874 5869 5866 5864 5863 5860 5857 5852 5846 5844 5836 5833 5827 5823 5816 5810 5801 5798 5796 5796
5883 5883 5882 5883 5884 5884 5884 5886 5886 5885 5884 5882 5880 5880 5879 5877 5877 5881 5877 5874 5875 5875 5873 5871 5868 5863 5861 5859 5858 5857 5852 5848 5844 5839 5835 5830 5826 5821 5816 5810 5807 5806 5804
5878 5877 5877 5876 5876 5876 5876 5876 5877 5876 5875 5875 5872 5871 5869 5870 5869 5870 5872 5867 5867 5869 5867 5865 5863 5859 5855 5856 5855 5856 5853 5849 5845 5842 5838 5834 5831 5827 5822 5817 5816 5813 5813
5869 5869 5868 5867 5867 5867 5867 5866 5866 5866 5867 5867 5866 5864 5863 5864 5863 5861 5864 5862 5862 5861 5861 5859 5857 5854 5851 5851 5850 5853 5852 5849 5845 5844 5841 5836 5835 5831 5827 5823 5822 5822 5820
5859 5859 5858 5858 5858 5859 5859 5859 5859 5860 5859 5859 5858 5859 5860 5858 5858 5859 5855 5855 5855 5855 5853 5851 5849 5846 5846 5845 5847 5850 5849 5847 5845 5845 5842 5839 5836 5834 5831 5827 5827 5828 5827
5848 5849 5849 5849 5849 5850 5851 5851 5852 5851 5850 5850 5850 5849 5851 5852 5851 5850 5847 5848 5849 5848 5847 5844 5842 5843 5842 5840 5844 5846 5847 5846 5844 5845 5843 5842 5838 5837 5833 5830 5828 5831 5830
5838 5839 5841 5841 5840 5840 5841 5841 5843 5843 5841 5841 5840 5841 5843 5843 5844 5843 5844 5844 5844 5842 5840 5838 5837 5835 5836 5838 5841 5844 5843 5843 5842 5843 5841 5841 5839 5837 5836 5832 5828 5827 5831
5826 5829 5831 5832 5833 5834 5832 5833 5833 5833 5835 5835 5833 5832 5834 5836 5837 5837 5839 5839 5839 5838 5836 5832 5832 5833 5835 5836 5839 5841 5841 5841 5842 5840 5839 5841 5840 5837 5836 5834 5830 5828 5827
5816 5818 5820 5822 5824 5825 5826 5825 5825 5825 5825 5825 5825 5826 5827 5829 5830 5830 5832 5832 5833 5834 5835 5830 5830 5829 5832 5834 5836 5836 5836 5838 5839 5838 5836 5838 5839 5837 5835 5832 5832 5829 5827
5807 5810 5812 5814 5815 5817 5816 5816 5817 5817 5817 5817 5817 5818 5819 5821 5822 5823 5824 5827 5826 5827 5830 5828 5826 5827 5827 5827 5829 5830 5831 5833 5835 5835 5834 5834 5835 5836 5834 5831 5830 5831 5827
5798 5802 5803 5805 5807 5808 5808 5809 5809 5808 5808 5808 5807 5808 5808 5811 5813 5814 5815 5817 5819 5819 5822 5823 5822 5821 5822 5824 5825 5826 5823 5826 5829 5830 5830 5832 5831 5832 5832 5830 5829 5829 5829
5789 5793 5795 5797 5798 5799 5800 5799 5799 5798 5797 5796 5797 5797 5799 5800 5801 5803 5804 5805 5809 5809 5811 5815 5816 5815 5815 5816 5819 5820 5821 5821 5825 5826 5825 5827 5828 5828 5828 5829 5827 5827 5827
5780 5783 5786 5788 5790 5790 5789 5789 5790 5790 5787 5787 5787 5787 5787 5788 5789 5791 5793 5793 5795 5799 5800 5803 5806 5808 5808 5809 5810 5813 5814 5816 5817 5820 5821 5822 5823 5824 5823 5824 5824 5824 5823
5769 5774 5777 5779 5781 5781 5780 5781 5782 5782 5780 5779 5779 5779 5778 5778 5779 5780 5780 5782 5783 5785 5788 5790 5793 5797 5799 5798 5802 5804 5807 5808 5810 5813 5814 5816 5818 5817 5818 5820 5821 5820 5819
5761 5764 5767 5769 5771 5774 5774 5773 5774 5773 5772 5770 5769 5768 5767 5767 5768 5769 5770 5770 5772 5774 5776 5778 5780 5783 5787 5790 5792 5793 5798 5802 5803 5804 5808 5810 5813 5811 5813 5813 5816 5816 5815
5748 5752 5756 5760 5764 5766 5766 5765 5765 5764 5762 5760 5758 5758 5757 5756 5756 5756 5757 5758 5758 5760 5763 5765 5768 5771 5774 5778 5782 5785 5788 5793 5796 5798 5801 5802 5805 5806 5806 5806 5808 5811 5811
5740 5745 5750 5754 5756 5757 5757 5756 5756 5755 5752 5750 5748 5746 5746 5744 5743 5743 5743 5743 5745 5746 5748 5752 5754 5758 5762 5766 5771 5775 5779 5780 5783 5788 5792 5795 5797 5798 5800 5801 5801 5802 5804
5736 5742 5745 5747 5749 5749 5747 5747 5746 5744 5741 5738 5736 5734 5733 5731 5730 5729 5730 5730 5731 5732 5734 5736 5739 5743 5747 5753 5758 5764 5768 5771 5775 5779 5783 5787 5789 5793 5793 5794 5794 5795 5796
5733 5736 5738 5740 5741 5739 5739 5738 5736 5734 5730 5726 5723 5721 5719 5718 5717 5716 5716 5717 5717 5718 5720 5722 5723 5728 5733 5738 5744 5750 5755 5761 5765 5770 5774 5779 5782 5784 5786 5786 5787 5789 5789
5726 5728 5731 5732 5732 5731 5730 5729 5726 5723 5719 5715 5711 5708 5705 5703 5701 5701 5699 5699 5700 5700 5703 5707 5709 5712 5717 5724 5731 5736 5743 5747 5754 5760 5765 5770 5773 5775 5776 5778 5781 5781 5782
Wind_Speed
7 13 16 19 20 17 21 25 27 24 22 23 25 24 21 22 21 21 22 24 26 28 25 26 28 33 40 31 34 37 39 39 40 42 44 41 39 32 16 17 14 12 7
19 23 19 18 21 20 19 18 22 24 24 25 27 29 27 24 24 21 22 23 23 26 29 28 25 31 33 32 30 33 34 36 37 40 43 41 39 31 15 14 15 15 12
15 18 14 16 21 20 17 18 19 18 18 21 25 28 29 26 24 23 22 22 23 24 24 26 31 34 34 33 29 29 33 35 40 38 41 42 38 31 32 17 16 17 19
22 18 14 16 17 19 22 25 21 19 24 21 21 23 24 24 23 20 20 20 23 29 31 22 27 30 30 26 28 28 30 31 36 38 39 41 37 31 29 22 28 26 25
21 22 18 17 17 18 19 24 27 19 28 27 29 25 24 23 23 21 17 21 21 27 18 21 24 27 27 27 26 29 28 28 32 36 36 38 38 32 28 26 18 20 24
26 25 24 22 21 21 23 22 25 28 36 27 28 24 25 23 23 25 26 21 19 18 22 23 25 23 19 23 23 26 28 29 30 32 33 35 35 35 32 26 25 19 22
29 28 28 27 27 27 26 27 26 24 24 24 24 25 29 33 25 29 34 16 15 25 25 24 27 28 25 21 23 23 24 27 29 31 30 30 32 33 32 28 24 20 21
31 32 33 33 32 31 30 28 27 26 24 26 26 25 26 22 27 28 26 25 28 25 25 25 27 27 29 28 21 19 19 22 25 27 26 25 29 31 30 27 24 20 24
32 32 33 34 34 34 34 34 32 26 25 29 28 26 25 27 21 20 29 23 21 22 28 27 26 34 36 27 22 15 14 16 21 21 23 22 24 27 28 22 22 18 24
32 33 33 35 36 35 35 35 32 26 28 29 25 18 19 22 24 21 22 24 25 28 26 31 29 29 35 22 19 14 10 12 16 14 19 20 22 23 24 22 17 16 18
34 34 35 35 36 36 34 33 29 27 26 26 23 21 20 22 22 29 24 28 23 23 25 27 30 26 25 23 13 12 9 7 11 11 12 16 20 20 20 21 12 10 15
35 35 35 35 34 32 31 28 26 25 26 23 23 21 23 21 21 21 23 21 24 22 22 23 27 25 23 26 14 15 9 3 7 9 12 12 16 18 16 17 17 10 10
37 36 34 34 34 32 30 27 23 27 26 25 25 25 24 22 21 19 21 20 21 22 19 19 21 19 16 15 19 15 8 3 4 6 9 13 16 18 16 11 15 3 12
37 34 33 31 30 28 29 28 27 28 28 29 31 31 29 26 24 26 24 23 21 18 15 12 11 10 18 19 16 15 10 7 5 4 6 8 10 13 17 10 11 10 12
36 34 32 30 28 28 27 29 30 28 30 34 36 37 35 34 34 31 29 24 20 18 13 8 8 16 22 20 17 15 12 7 7 8 7 6 6 10 13 11 8 10 3
35 34 32 27 29 29 27 27 29 29 30 34 40 42 42 42 41 37 34 29 26 21 20 14 10 13 25 30 29 20 14 10 8 9 11 10 7 4 8 8 7 6 8
39 32 31 31 29 29 31 28 36 38 35 33 36 37 42 44 42 44 41 38 35 31 26 21 21 20 18 13 28 25 17 9 8 10 10 10 10 5 4 5 4 3 4
35 36 31 29 30 31 30 34 31 34 37 38 37 37 36 36 39 42 46 43 38 36 32 30 27 26 23 22 24 21 21 18 19 16 11 12 10 6 6 5 4 5 4
35 38 42 34 37 37 36 31 33 36 37 34 34 35 37 38 37 38 39 42 44 40 39 36 36 33 32 29 26 26 22 20 17 15 14 16 16 15 13 8 9 9 9
41 42 44 43 40 34 28 32 32 31 30 29 29 29 30 31 32 35 36 38 41 41 41 43 41 39 39 38 31 32 29 25 22 19 18 19 19 17 14 13 12 12 10
50 49 53 31 32 33 32 28 26 27 28 29 31 32 33 33 34 34 35 36 39 41 41 41 44 45 41 43 39 28 32 30 28 24 20 21 21 16 19 22 16 14 14
41 44 36 24 25 25 22 22 24 27 30 30 31 33 34 35 37 39 39 39 41 41 42 46 43 45 46 43 45 40 33 33 31 30 24 22 22 20 22 21 20 14 15
21 18 22 26 24 21 18 19 23 26 30 33 33 34 36 36 37 38 39 41 39 40 44 46 50 48 48 48 46 47 43 35 34 32 28 25 24 24 24 23 22 24 16
20 27 27 26 24 23 22 25 28 30 33 34 36 35 37 38 38 38 37 36 38 38 37 43 50 54 51 51 49 44 46 43 39 37 34 29 25 27 25 23 22 20 19
27 28 29 27 24 21 25 28 31 34 38 39 37 37 34 33 34 35 40 41 43 40 38 40 42 51 55 52 51 47 46 45 42 41 37 32 28 28 27 26 25 24 23
29 28 26 24 22 24 27 31 35 38 40 38 39 40 41 45 44 42 41 43 45 46 50 50 45 44 51 54 52 51 48 44 43 41 38 33 31 29 27 28 29 27 25
Wind_Direction
292 325 312 302 292 283 280 282 284 285 286 292 298 301 303 303 305 307 307 311 316 320 324 326 332 329 339 349 354 352 356 355 358 0 2 1 2 351 2 8 1 9 22
280 290 307 315 304 305 303 297 293 292 293 294 295 297 297 299 301 304 305 308 310 318 325 321 323 328 325 340 344 352 357 358 359 360 3 3 2 2 18 33 8 20 63
272 282 290 299 290 277 283 293 283 292 300 305 306 305 301 298 298 303 304 305 312 307 304 311 316 320 331 336 336 354 359 2 1 360 3 5 6 11 12 42 23 40 60
271 283 289 295 300 291 283 278 288 291 301 294 303 299 297 301 300 303 309 314 321 315 332 309 314 328 329 339 334 345 356 4 0 0 3 6 7 14 18 28 55 45 58
278 283 284 282 288 289 296 286 287 273 324 309 307 301 301 296 295 300 306 316 316 326 332 324 323 329 329 331 329 337 352 2 360 1 1 9 12 19 15 36 46 53 66
290 291 293 291 290 297 293 296 303 309 307 309 310 318 309 299 296 297 298 304 308 315 323 328 325 335 321 334 323 330 343 358 360 3 1 8 13 20 28 43 60 66 80
293 294 294 298 295 296 295 294 302 305 304 300 306 293 294 305 298 297 294 286 306 314 314 317 323 315 318 325 320 321 335 350 358 1 3 6 12 20 27 52 57 76 90
289 293 296 295 295 297 297 296 297 299 302 305 302 284 287 291 296 287 294 281 291 303 307 309 306 299 293 307 328 310 327 343 359 3 3 13 8 19 25 48 64 88 106
283 286 290 292 293 295 296 299 300 306 305 302 301 293 278 266 264 291 286 288 290 296 300 295 290 286 287 294 301 294 318 338 2 8 4 18 12 21 27 47 67 86 109
280 283 284 287 290 292 296 300 305 302 294 292 294 285 271 274 269 254 272 280 285 289 293 287 284 279 289 295 281 272 299 336 1 11 8 19 21 22 26 44 72 90 129
279 280 282 284 286 289 292 296 297 296 287 281 280 282 282 276 278 274 266 273 269 277 281 285 288 287 289 283 247 246 270 328 352 351 7 7 19 25 28 36 80 97 141
272 276 279 283 286 289 291 291 291 278 282 273 270 262 254 270 275 274 260 257 271 271 273 287 287 284 265 272 216 226 238 300 325 341 9 341 357 18 29 38 41 133 156
269 272 275 281 286 290 289 287 281 273 262 255 258 254 246 252 262 269 265 264 275 284 285 283 283 287 259 220 213 227 222 233 300 344 16 3 357 6 21 36 51 84 171
267 270 274 278 283 285 283 278 278 275 267 263 252 248 249 249 254 263 265 264 271 289 310 307 309 265 227 198 220 231 209 219 263 317 24 4 357 352 1 43 42 49 200
264 266 268 273 275 279 279 275 268 269 270 266 263 254 253 254 261 266 265 263 257 270 282 265 283 255 205 202 217 227 244 237 265 298 331 336 351 334 355 13 56 36 80
260 263 265 266 270 275 278 284 277 269 274 275 267 261 259 261 260 264 266 265 260 255 270 256 233 227 234 212 204 207 228 239 254 283 297 311 310 329 326 352 11 50 37
256 262 265 267 266 272 271 284 284 273 277 273 270 263 263 261 261 265 266 269 264 261 252 248 241 231 239 239 229 237 209 232 250 273 286 288 302 332 303 314 328 341 61
254 258 261 262 266 271 272 289 275 267 272 279 274 267 263 264 265 261 263 265 257 254 252 250 240 239 235 232 222 227 233 235 255 267 278 279 280 313 297 248 290 282 291
253 254 260 266 271 276 278 274 272 276 277 277 277 274 271 268 264 262 258 257 258 251 249 248 246 241 238 235 231 235 237 239 248 245 264 269 271 278 306 257 256 253 267
252 256 262 266 269 267 268 274 275 270 268 271 271 272 271 269 265 261 259 255 253 253 249 245 244 242 243 246 232 238 245 248 253 252 261 270 271 277 276 269 282 252 270
251 257 261 252 250 262 267 267 268 275 278 277 276 275 271 270 269 266 263 260 255 252 249 247 245 243 238 240 245 235 241 243 248 256 252 258 264 266 273 272 256 254 263
231 237 247 246 253 256 259 271 282 288 288 285 282 279 275 274 275 272 267 260 256 254 250 248 245 241 244 238 237 238 236 247 241 244 249 257 259 257 260 264 249 253 253
209 213 231 244 244 254 265 282 291 295 295 291 289 284 279 279 277 273 269 266 263 255 250 244 246 244 240 242 239 237 236 245 229 239 249 255 253 255 255 251 251 257 249
220 231 237 238 247 263 279 285 294 297 303 299 294 292 284 276 270 270 267 267 267 262 256 249 241 242 242 240 241 241 240 238 242 245 251 253 251 247 245 244 249 252 253
235 238 238 243 258 277 287 292 293 301 309 304 299 298 281 272 273 279 274 275 266 263 264 259 251 241 240 238 239 239 237 235 236 242 248 249 247 245 244 245 246 248 251
239 234 243 254 270 285 296 297 303 306 308 303 297 297 290 274 268 270 277 278 267 261 262 260 257 254 240 235 236 238 236 234 234 236 245 244 248 241 242 245 247 249 253